Weather Roundup
Issued by NWS Chicago, IL

Home | Current Version | Previous Version | Graphics & Text | Print | Product List | Glossary On
Versions: 1 2 3 4 5 6 7 8 9 10 11 12 13 14 15 16 17 18 19 20 21 22 23 24 25 26 27 28 29 30 31 32 33 34 35 36 37 38 39 40 41 42 43 44 45 46 47 48 49 50
000
NZUS59 KLOT 031212
HRRLOT

CHICAGO AREA WEATHER ROUNDUP
NATIONAL WEATHER SERVICE CHICAGO/ROMEOVILLE IL
700 AM CDT THU SEP 03 2015

NOTE: "FAIR" INDICATES FEW OR NO CLOUDS BELOW 12,000 FEET WITH NO
SIGNIFICANT WEATHER AND/OR OBSTRUCTIONS TO VISIBILITY.

* THESE STATIONS ARE NOT UNDER NWS QUALITY CONTROL. THEY ALSO MAY NOT
  REPORT WEATHER SUCH AS PRECIPITATION OR FOG.

ILZ005-006-012>014-019>023-031300-
NORTHEAST ILLINOIS

CITY           SKY/WX    TMP DP  RH WIND       PRES   REMARKS
OHARE          PTCLDY    73  68  84 SW6       29.95S
6HR MIN TEMP:  72; 6HR MAX TEMP:  76;

MIDWAY         PTCLDY    76  66  71 SW7       29.96S
6HR MIN TEMP:  75; 6HR MAX TEMP:  80; 6HR PCP: TRACE;

AURORA         CLEAR     71  67  87 CALM      29.98R FOG
6HR MIN TEMP:  69; 6HR MAX TEMP:  74;

LANSING*       CLEAR     69  66  89 S5        29.98S
JOLIET*        CLEAR     70  68  93 CALM      29.98R
WAUKEGAN       PTCLDY    72  68  87 SW7       29.94R
6HR MIN TEMP:  71; 6HR MAX TEMP:  75;

DUPAGE AIRPORT CLEAR     69  66  90 S6        29.96S
6HR MIN TEMP:  68; 6HR MAX TEMP:  73;

WHEELING       CLEAR     74  67  78 S5        29.96S
6HR MIN TEMP:  73; 6HR MAX TEMP:  79;

KANKAKEE*      CLEAR     68  67  96 CALM      30.00S FOG
MORRIS*        CLEAR     68  65  92 SW6       29.96S
LEWIS AIRPORT* CLEAR     67  65  94 S6        29.98R FOG
NORTHERLY IS     N/A     76  66  71 SW6         N/A
$$

WIZ051-052-058>065-066-070>072-031300-
SOUTHEAST WISCONSIN

CITY           SKY/WX    TMP DP  RH WIND       PRES   REMARKS
MILWAUKEE      MOCLDY    73  67  81 SW13      29.91F
6HR MIN TEMP:  73; 6HR MAX TEMP:  77;

KENOSHA*       MOCLDY    73  68  84 SW5       29.94S
RACINE*        PTCLDY    73  67  81 SW7       29.94S
BURLINGTON     PTCLDY    66  65  97 SW3       29.94S FOG
WAUKESHA       PTCLDY    70  66  88 SW6       29.94S
WEST BEND      CLOUDY    70  66  88 W3        29.92S
$$

INZ001>003-010>013-019-020-031300-
NORTHWEST INDIANA

CITY           SKY/WX    TMP DP  RH WIND       PRES   REMARKS
GARY*          CLEAR     73  66  78 S5        29.98R
MICHIGAN CITY* NOT AVBL
RENSSELAER*    NOT AVBL
VALPARAISO     CLEAR     71  68  90 SW3       30.00R FOG
$$

LMZ740>746-031300-
SOUTHERN LAKE MICHIGAN

STATION/POSITION TIME  SKY/WX   TEMP WIND        PRES    VSBY
                                AIR  DIR/SP/G
                 (UTC)          (F)  (DEG/KT/KT) (MB)    (MI)
HARRISON CRIB    1200            77  220/ 12/ 14   N/A
BURNHAM HARBOR   1200            76  250/  2/  8   N/A
CALUMET HARBOR   1100            74  210/  4/  6   N/A
BURNS HARBOR     1100            74  180/  7/ 10 1015.2S
MICHIGAN CITY    1100            74  180/ 10/ 12   N/A
$$

ABBREVIATIONS USED IN REMARKS
   TC - TEMPERATURE IN CELSIUS
  WCI - WIND CHILL INDEX
   HX - HEAT INDEX
  VSB - VISIBILITY
$$


USA.gov is the U.S. government's official web portal to all federal, state and local government web resources and services.